Time,TemperatureF,DewpointF,PressureIn,WindDirection,WindDirectionDegrees,WindSpeedMPH,WindSpeedGustMPH,Humidity,HourlyPrecipIn,Conditions,Clouds,dailyrainin,SoftwareType,DateUTC
2013-01-12 00:00:00,69.0,68.4,29.98,SSE,153,1.0,3.0,98,0.00,,---,0.00,VWS V14.01,2013-01-12 06:00:00,
2013-01-12 00:05:00,68.9,68.3,29.98,SE,132,1.0,2.0,98,0.00,,---,0.00,VWS V14.01,2013-01-12 06:05:00,
2013-01-12 00:10:00,68.8,68.2,29.98,SE,132,0.0,2.0,98,0.00,,---,0.00,VWS V14.01,2013-01-12 06:10:00,
2013-01-12 00:15:00,68.7,68.1,29.98,SE,145,0.0,2.0,98,0.00,,---,0.00,VWS V14.01,2013-01-12 06:15:00,
2013-01-12 00:20:00,68.7,68.1,29.98,SSE,154,0.0,2.0,98,0.00,,---,0.00,VWS V14.01,2013-01-12 06:20:00,
2013-01-12 00:25:00,68.6,68.0,29.98,SSE,148,1.0,2.0,98,0.00,,---,0.00,VWS V14.01,2013-01-12 06:25:00,
2013-01-12 00:30:00,68.6,68.0,29.98,SSE,149,0.0,2.0,98,0.00,,---,0.00,VWS V14.01,2013-01-12 06:30:00,
2013-01-12 00:35:00,68.5,67.9,29.98,SSE,153,0.0,0.0,98,0.00,,---,0.00,VWS V14.01,2013-01-12 06:35:00,
2013-01-12 00:40:00,68.5,67.9,29.98,SE,130,0.0,1.0,98,0.00,,---,0.00,VWS V14.01,2013-01-12 06:40:00,
2013-01-12 00:45:00,68.6,68.3,29.98,SE,145,0.0,1.0,99,0.00,,---,0.00,VWS V14.01,2013-01-12 06:45:00,
2013-01-12 00:50:00,68.5,68.2,29.98,SE,134,1.0,2.0,99,0.00,,---,0.00,VWS V14.01,2013-01-12 06:50:00,
2013-01-12 00:55:00,68.5,68.2,29.98,SSE,148,0.0,2.0,99,0.00,,---,0.00,VWS V14.01,2013-01-12 06:55:00,
2013-01-12 01:00:00,68.5,68.2,29.98,SE,139,0.0,2.0,99,0.00,,---,0.00,VWS V14.01,2013-01-12 07:00:00,
2013-01-12 01:05:00,68.5,68.2,29.98,SSE,151,1.0,2.0,99,0.00,,---,0.00,VWS V14.01,2013-01-12 07:05:00,
2013-01-12 01:10:00,68.5,68.2,29.98,SSE,150,0.0,2.0,99,0.00,,---,0.00,VWS V14.01,2013-01-12 07:10:00,
2013-01-12 01:15:00,68.5,68.2,29.98,SE,128,0.0,2.0,99,0.00,,---,0.00,VWS V14.01,2013-01-12 07:15:00,
2013-01-12 01:20:00,68.5,68.2,29.98,SE,136,0.0,2.0,99,0.00,,---,0.00,VWS V14.01,2013-01-12 07:20:00,
2013-01-12 01:25:00,68.5,68.2,29.98,SE,142,0.0,2.0,99,0.00,,---,0.00,VWS V14.01,2013-01-12 07:25:00,
2013-01-12 01:30:00,68.5,68.2,29.98,SE,131,0.0,2.0,99,0.00,,---,0.00,VWS V14.01,2013-01-12 07:30:00,
2013-01-12 01:35:00,68.5,68.2,29.98,SE,131,0.0,1.0,99,0.00,,---,0.00,VWS V14.01,2013-01-12 07:35:00,
2013-01-12 01:40:00,68.5,68.2,29.98,SE,129,0.0,1.0,99,0.00,,---,0.00,VWS V14.01,2013-01-12 07:40:00,
2013-01-12 01:45:00,68.5,68.2,29.98,East,84,0.0,1.0,99,0.00,,---,0.00,VWS V14.01,2013-01-12 07:45:00,
2013-01-12 01:50:00,68.5,68.2,29.98,East,98,0.0,1.0,99,0.00,,---,0.00,VWS V14.01,2013-01-12 07:50:00,
2013-01-12 01:55:00,68.6,68.3,29.98,SSE,148,0.0,1.0,99,0.00,,---,0.00,VWS V14.01,2013-01-12 07:55:00,
2013-01-12 02:00:00,68.6,68.3,29.98,SSE,148,0.0,1.0,99,0.00,,---,0.00,VWS V14.01,2013-01-12 08:00:00,
2013-01-12 02:05:00,68.7,68.4,29.98,ESE,105,0.0,1.0,99,0.00,,---,0.00,VWS V14.01,2013-01-12 08:05:00,
2013-01-12 02:10:00,68.8,68.5,29.98,SW,214,0.0,1.0,99,0.00,,---,0.00,VWS V14.01,2013-01-12 08:10:00,
2013-01-12 02:15:00,68.8,68.5,29.98,South,190,0.0,1.0,99,0.00,,---,0.00,VWS V14.01,2013-01-12 08:15:00,
2013-01-12 02:20:00,68.9,68.6,29.98,South,187,0.0,1.0,99,0.00,,---,0.00,VWS V14.01,2013-01-12 08:20:00,
2013-01-12 02:25:00,69.0,68.7,29.98,SE,139,0.0,1.0,99,0.00,,---,0.00,VWS V14.01,2013-01-12 08:25:00,
2013-01-12 02:30:00,69.1,68.8,29.98,SSE,148,0.0,1.0,99,0.00,,---,0.00,VWS V14.01,2013-01-12 08:30:00,
2013-01-12 02:35:00,69.2,68.9,29.98,SSE,148,0.0,0.0,99,0.00,,---,0.00,VWS V14.01,2013-01-12 08:35:00,
2013-01-12 02:40:00,69.3,69.0,29.98,SSW,197,0.0,0.0,99,0.00,,---,0.00,VWS V14.01,2013-01-12 08:40:00,
2013-01-12 02:45:00,69.4,69.1,29.97,SE,141,1.0,1.0,99,0.00,,---,0.00,VWS V14.01,2013-01-12 08:45:00,
2013-01-12 02:50:00,69.4,69.1,29.97,SE,144,0.0,1.0,99,0.00,,---,0.00,VWS V14.01,2013-01-12 08:50:00,
2013-01-12 02:55:00,69.5,69.2,29.97,SE,145,0.0,1.0,99,0.00,,---,0.00,VWS V14.01,2013-01-12 08:55:00,
2013-01-12 03:00:00,69.6,69.3,29.97,SE,135,0.0,1.0,99,0.00,,---,0.00,VWS V14.01,2013-01-12 09:00:00,
2013-01-12 03:05:00,69.6,69.3,29.97,SSE,149,0.0,0.0,99,0.00,,---,0.00,VWS V14.01,2013-01-12 09:05:00,
2013-01-12 03:10:00,69.7,69.4,29.97,SE,141,0.0,1.0,99,0.00,,---,0.00,VWS V14.01,2013-01-12 09:10:00,
2013-01-12 03:15:00,69.7,69.4,29.96,SE,145,1.0,3.0,99,0.00,,---,0.00,VWS V14.01,2013-01-12 09:15:00,
2013-01-12 03:20:00,69.8,69.5,29.96,SE,138,0.0,3.0,99,0.00,,---,0.00,VWS V14.01,2013-01-12 09:20:00,
2013-01-12 03:25:00,69.8,69.5,29.96,SE,138,1.0,3.0,99,0.00,,---,0.00,VWS V14.01,2013-01-12 09:25:00,
2013-01-12 03:30:00,69.9,69.6,29.96,SE,140,0.0,3.0,99,0.00,,---,0.00,VWS V14.01,2013-01-12 09:30:00,
2013-01-12 03:35:00,69.9,69.6,29.96,ESE,120,0.0,2.0,99,0.00,,---,0.00,VWS V14.01,2013-01-12 09:35:00,
2013-01-12 03:40:00,70.0,69.7,29.96,SE,145,0.0,2.0,99,0.00,,---,0.00,VWS V14.01,2013-01-12 09:40:00,
2013-01-12 03:45:00,70.0,69.7,29.95,SE,134,0.0,2.0,99,0.00,,---,0.00,VWS V14.01,2013-01-12 09:45:00,
2013-01-12 03:50:00,69.9,69.6,29.95,SE,134,0.0,2.0,99,0.00,,---,0.00,VWS V14.01,2013-01-12 09:50:00,
2013-01-12 03:55:00,69.9,69.6,29.95,WSW,244,0.0,2.0,99,0.00,,---,0.00,VWS V14.01,2013-01-12 09:55:00,
2013-01-12 04:00:00,69.9,69.6,29.95,SE,142,0.0,2.0,99,0.00,,---,0.00,VWS V14.01,2013-01-12 10:00:00,
2013-01-12 04:05:00,69.9,69.6,29.95,SE,138,0.0,1.0,99,0.00,,---,0.00,VWS V14.01,2013-01-12 10:05:00,
2013-01-12 04:10:00,69.9,69.6,29.95,SSE,160,0.0,1.0,99,0.00,,---,0.00,VWS V14.01,2013-01-12 10:10:00,
2013-01-12 04:15:00,69.9,69.3,29.94,SSE,149,0.0,1.0,98,0.00,,---,0.00,VWS V14.01,2013-01-12 10:15:00,
2013-01-12 04:20:00,69.9,69.6,29.95,SSE,161,0.0,1.0,99,0.00,,---,0.00,VWS V14.01,2013-01-12 10:20:00,
2013-01-12 04:25:00,69.9,69.3,29.94,SE,135,0.0,1.0,98,0.00,,---,0.00,VWS V14.01,2013-01-12 10:25:00,
2013-01-12 04:30:00,69.9,69.3,29.94,SE,132,0.0,1.0,98,0.00,,---,0.00,VWS V14.01,2013-01-12 10:30:00,
2013-01-12 04:35:00,69.9,69.3,29.94,SW,218,0.0,1.0,98,0.00,,---,0.00,VWS V14.01,2013-01-12 10:35:00,
2013-01-12 04:40:00,69.8,69.2,29.94,SSE,156,0.0,1.0,98,0.00,,---,0.00,VWS V14.01,2013-01-12 10:40:00,
2013-01-12 04:45:00,69.8,69.2,29.94,SSE,149,0.0,1.0,98,0.00,,---,0.00,VWS V14.01,2013-01-12 10:45:00,
2013-01-12 04:50:00,69.7,69.1,29.94,SSE,150,0.0,1.0,98,0.00,,---,0.00,VWS V14.01,2013-01-12 10:50:00,
2013-01-12 04:55:00,69.7,69.1,29.95,SSE,150,0.0,1.0,98,0.00,,---,0.00,VWS V14.01,2013-01-12 10:55:00,
2013-01-12 05:00:00,69.7,69.1,29.95,SSE,150,0.0,1.0,98,0.00,,---,0.00,VWS V14.01,2013-01-12 11:00:00,
2013-01-12 05:05:00,69.6,69.0,29.95,SSE,150,0.0,0.0,98,0.00,,---,0.00,VWS V14.01,2013-01-12 11:05:00,
2013-01-12 05:10:00,69.6,69.0,29.94,SSE,149,0.0,0.0,98,0.00,,---,0.00,VWS V14.01,2013-01-12 11:10:00,
2013-01-12 05:15:00,69.6,69.0,29.95,SSE,150,0.0,0.0,98,0.00,,---,0.00,VWS V14.01,2013-01-12 11:15:00,
2013-01-12 05:20:00,69.6,69.0,29.95,SSE,150,0.0,0.0,98,0.00,,---,0.00,VWS V14.01,2013-01-12 11:20:00,
2013-01-12 05:25:00,69.5,68.9,29.95,SSE,150,0.0,0.0,98,0.00,,---,0.00,VWS V14.01,2013-01-12 11:25:00,
2013-01-12 05:30:00,69.5,68.9,29.95,SSE,150,0.0,0.0,98,0.00,,---,0.00,VWS V14.01,2013-01-12 11:30:00,
2013-01-12 05:35:00,69.5,68.9,29.95,SE,141,0.0,0.0,98,0.00,,---,0.00,VWS V14.01,2013-01-12 11:35:00,
2013-01-12 05:40:00,69.5,68.9,29.95,SE,141,0.0,0.0,98,0.00,,---,0.00,VWS V14.01,2013-01-12 11:40:00,
2013-01-12 05:45:00,69.5,68.9,29.95,SSW,205,0.0,1.0,98,0.00,,---,0.00,VWS V14.01,2013-01-12 11:45:00,
2013-01-12 05:50:00,69.5,68.9,29.95,SSW,210,0.0,1.0,98,0.00,,---,0.00,VWS V14.01,2013-01-12 11:50:00,
2013-01-12 05:55:00,69.5,68.9,29.96,SSW,210,0.0,1.0,98,0.00,,---,0.00,VWS V14.01,2013-01-12 11:55:00,
2013-01-12 06:00:00,69.5,68.9,29.96,SSW,210,0.0,1.0,98,0.00,,---,0.00,VWS V14.01,2013-01-12 12:00:00,
2013-01-12 06:05:00,69.5,68.9,29.96,SSW,210,0.0,0.0,98,0.00,,---,0.00,VWS V14.01,2013-01-12 12:05:00,
2013-01-12 06:10:00,69.4,68.8,29.97,SSW,210,0.0,0.0,98,0.00,,---,0.00,VWS V14.01,2013-01-12 12:10:00,
2013-01-12 06:15:00,69.4,68.8,29.97,SSW,210,0.0,0.0,98,0.00,,---,0.00,VWS V14.01,2013-01-12 12:15:00,
2013-01-12 06:20:00,69.4,68.8,29.97,SSW,210,0.0,0.0,98,0.00,,---,0.00,VWS V14.01,2013-01-12 12:20:00,
2013-01-12 06:25:00,69.4,68.8,29.97,SSW,210,0.0,0.0,98,0.00,,---,0.00,VWS V14.01,2013-01-12 12:25:00,
2013-01-12 06:30:00,69.4,68.8,29.97,SSW,210,0.0,0.0,98,0.00,,---,0.00,VWS V14.01,2013-01-12 12:30:00,
2013-01-12 06:35:00,69.4,68.8,29.97,SSW,210,0.0,0.0,98,0.00,,---,0.00,VWS V14.01,2013-01-12 12:35:00,
2013-01-12 06:40:00,69.5,69.2,29.97,SSW,209,0.0,0.0,99,0.00,,---,0.00,VWS V14.01,2013-01-12 12:40:00,
2013-01-12 06:45:00,69.6,69.3,29.97,SSW,210,0.0,0.0,99,0.00,,---,0.00,VWS V14.01,2013-01-12 12:45:00,
2013-01-12 06:50:00,69.7,69.4,29.98,SSW,207,0.0,0.0,99,0.00,,---,0.00,VWS V14.01,2013-01-12 12:50:00,
2013-01-12 06:55:00,69.9,69.6,29.98,SSW,207,0.0,1.0,99,0.00,,---,0.00,VWS V14.01,2013-01-12 12:55:00,
2013-01-12 07:00:00,69.9,69.6,29.98,SSW,200,0.0,1.0,99,0.00,,---,0.00,VWS V14.01,2013-01-12 13:00:00,
2013-01-12 07:05:00,70.0,69.7,29.97,SSW,195,0.0,0.0,99,0.00,,---,0.00,VWS V14.01,2013-01-12 13:05:00,
2013-01-12 07:10:00,70.2,69.9,29.97,SE,139,0.0,0.0,99,0.00,,---,0.00,VWS V14.01,2013-01-12 13:10:00,
2013-01-12 07:15:00,70.3,70.0,29.98,SE,142,0.0,1.0,99,0.00,,---,0.00,VWS V14.01,2013-01-12 13:15:00,
2013-01-12 07:20:00,70.5,70.2,29.98,SE,136,1.0,1.0,99,0.00,,---,0.00,VWS V14.01,2013-01-12 13:20:00,
2013-01-12 07:25:00,70.5,70.2,29.98,SE,138,1.0,3.0,99,0.00,,---,0.00,VWS V14.01,2013-01-12 13:25:00,
2013-01-12 07:30:00,70.6,70.3,29.98,SE,139,0.0,3.0,99,0.00,,---,0.00,VWS V14.01,2013-01-12 13:30:00,
2013-01-12 07:35:00,70.7,70.4,29.98,SE,145,0.0,0.0,99,0.00,,---,0.00,VWS V14.01,2013-01-12 13:35:00,
2013-01-12 07:40:00,70.7,70.1,29.98,SSW,207,0.0,1.0,98,0.00,,---,0.00,VWS V14.01,2013-01-12 13:40:00,
2013-01-12 07:45:00,70.8,70.2,29.98,SE,141,0.0,2.0,98,0.00,,---,0.00,VWS V14.01,2013-01-12 13:45:00,
2013-01-12 07:50:00,70.9,70.3,29.98,SE,142,0.0,2.0,98,0.00,,---,0.00,VWS V14.01,2013-01-12 13:50:00,
2013-01-12 07:55:00,70.9,70.3,29.98,SSE,153,0.0,2.0,98,0.00,,---,0.00,VWS V14.01,2013-01-12 13:55:00,
2013-01-12 08:00:00,71.0,70.4,29.99,SSE,154,0.0,2.0,98,0.00,,---,0.00,VWS V14.01,2013-01-12 14:00:00,
2013-01-12 08:05:00,71.0,70.4,29.99,SE,138,1.0,1.0,98,0.00,,---,0.00,VWS V14.01,2013-01-12 14:05:00,
2013-01-12 08:10:00,71.1,70.5,29.99,SSW,212,0.0,1.0,98,0.00,,---,0.00,VWS V14.01,2013-01-12 14:10:00,
2013-01-12 08:15:00,71.1,70.5,30.00,SSW,210,0.0,1.0,98,0.00,,---,0.00,VWS V14.01,2013-01-12 14:15:00,
2013-01-12 08:20:00,71.2,70.6,30.00,SSE,159,0.0,2.0,98,0.00,,---,0.00,VWS V14.01,2013-01-12 14:20:00,
2013-01-12 08:25:00,71.2,70.3,30.00,SSE,153,0.0,2.0,97,0.00,,---,0.00,VWS V14.01,2013-01-12 14:25:00,
2013-01-12 08:30:00,71.2,70.3,30.00,SE,125,0.0,2.0,97,0.00,,---,0.00,VWS V14.01,2013-01-12 14:30:00,
2013-01-12 08:35:00,71.2,70.3,30.00,SE,139,0.0,0.0,97,0.00,,---,0.00,VWS V14.01,2013-01-12 14:35:00,
2013-01-12 08:40:00,71.2,70.3,30.00,WSW,240,0.0,2.0,97,0.00,,---,0.00,VWS V14.01,2013-01-12 14:40:00,
2013-01-12 08:45:00,71.4,70.5,30.00,SSW,203,0.0,2.0,97,0.00,,---,0.00,VWS V14.01,2013-01-12 14:45:00,
2013-01-12 08:49:00,71.9,71.0,30.00,SE,145,1.0,2.0,97,0.00,,---,0.00,VWS V14.01,2013-01-12 14:49:00,
2013-01-12 08:54:00,72.5,71.6,30.00,SSE,148,0.0,4.0,97,0.00,,---,0.00,VWS V14.01,2013-01-12 14:54:00,
2013-01-12 08:59:00,72.9,71.7,30.00,ESE,117,0.0,4.0,96,0.00,,---,0.00,VWS V14.01,2013-01-12 14:59:00,
2013-01-12 09:04:00,73.3,71.8,30.00,SE,135,0.0,0.0,95,0.00,,---,0.00,VWS V14.01,2013-01-12 15:04:00,
2013-01-12 09:09:00,73.4,71.6,30.00,SSE,158,1.0,3.0,94,0.00,,---,0.00,VWS V14.01,2013-01-12 15:09:00,
2013-01-12 09:14:00,73.5,71.7,30.00,SSE,159,2.0,4.0,94,0.00,,---,0.00,VWS V14.01,2013-01-12 15:14:00,
2013-01-12 09:19:00,74.1,72.3,30.00,SE,141,1.0,4.0,94,0.00,,---,0.00,VWS V14.01,2013-01-12 15:19:00,
2013-01-12 09:24:00,74.5,72.3,30.00,SSE,152,3.0,4.0,93,0.00,,---,0.00,VWS V14.01,2013-01-12 15:24:00,
2013-01-12 09:29:00,74.7,72.6,30.00,SE,144,0.0,4.0,93,0.00,,---,0.00,VWS V14.01,2013-01-12 15:29:00,
2013-01-12 09:34:00,74.9,72.4,30.00,SE,133,0.0,3.0,92,0.00,,---,0.00,VWS V14.01,2013-01-12 15:34:00,
2013-01-12 09:39:00,75.3,72.5,30.00,SW,231,0.0,4.0,91,0.00,,---,0.00,VWS V14.01,2013-01-12 15:39:00,
2013-01-12 09:44:00,75.8,72.7,30.00,SSE,165,3.0,7.0,90,0.00,,---,0.00,VWS V14.01,2013-01-12 15:44:00,
2013-01-12 09:49:00,76.2,72.7,29.99,SE,141,0.0,7.0,89,0.00,,---,0.00,VWS V14.01,2013-01-12 15:49:00,
2013-01-12 09:54:00,76.7,72.9,29.99,ESE,106,1.0,7.0,88,0.00,,---,0.00,VWS V14.01,2013-01-12 15:54:00,
2013-01-12 09:59:00,76.7,72.5,29.99,SW,222,0.0,7.0,87,0.00,,---,0.00,VWS V14.01,2013-01-12 15:59:00,
2013-01-12 10:04:00,76.4,72.2,29.99,SE,125,1.0,3.0,87,0.00,,---,0.00,VWS V14.01,2013-01-12 16:04:00,
2013-01-12 10:09:00,76.3,72.2,29.99,SW,224,3.0,5.0,87,0.00,,---,0.00,VWS V14.01,2013-01-12 16:09:00,
2013-01-12 10:14:00,76.5,72.0,29.98,SW,217,1.0,11.0,86,0.00,,---,0.00,VWS V14.01,2013-01-12 16:14:00,
2013-01-12 10:19:00,76.7,72.2,29.98,SSW,200,1.0,11.0,86,0.00,,---,0.00,VWS V14.01,2013-01-12 16:19:00,
2013-01-12 10:24:00,77.0,72.5,29.98,South,176,0.0,11.0,86,0.00,,---,0.00,VWS V14.01,2013-01-12 16:24:00,
2013-01-12 10:29:00,77.2,72.7,29.97,WSW,238,1.0,11.0,86,0.00,,---,0.00,VWS V14.01,2013-01-12 16:29:00,
2013-01-12 10:34:00,77.7,72.8,29.97,South,190,3.0,4.0,85,0.00,,---,0.00,VWS V14.01,2013-01-12 16:34:00,
2013-01-12 10:39:00,78.1,72.9,29.97,SE,140,2.0,6.0,84,0.00,,---,0.00,VWS V14.01,2013-01-12 16:39:00,
2013-01-12 10:44:00,77.9,72.7,29.97,SE,146,2.0,7.0,84,0.00,,---,0.00,VWS V14.01,2013-01-12 16:44:00,
2013-01-12 10:49:00,77.8,72.2,29.97,SSE,159,1.0,10.0,83,0.00,,---,0.00,VWS V14.01,2013-01-12 16:49:00,
2013-01-12 10:54:00,77.6,72.4,29.97,SSW,198,3.0,10.0,84,0.00,,---,0.00,VWS V14.01,2013-01-12 16:54:00,
2013-01-12 10:59:00,77.9,72.7,29.96,South,181,0.0,10.0,84,0.00,,---,0.00,VWS V14.01,2013-01-12 16:59:00,
2013-01-12 11:04:00,78.1,72.5,29.96,SW,225,2.0,6.0,83,0.00,,---,0.00,VWS V14.01,2013-01-12 17:04:00,
2013-01-12 11:09:00,78.5,72.6,29.96,ESE,103,1.0,6.0,82,0.00,,---,0.00,VWS V14.01,2013-01-12 17:09:00,
2013-01-12 11:14:00,78.6,72.7,29.96,SSE,152,1.0,6.0,82,0.00,,---,0.00,VWS V14.01,2013-01-12 17:14:00,
2013-01-12 11:19:00,78.9,72.6,29.95,WSW,254,2.0,8.0,81,0.00,,---,0.00,VWS V14.01,2013-01-12 17:19:00,
2013-01-12 11:24:00,78.2,71.9,29.96,WSW,240,5.0,9.0,81,0.00,,---,0.00,VWS V14.01,2013-01-12 17:24:00,
2013-01-12 11:29:00,77.7,71.8,29.96,SSE,163,3.0,9.0,82,0.00,,---,0.00,VWS V14.01,2013-01-12 17:29:00,
2013-01-12 11:34:00,77.5,71.9,29.95,SE,143,1.0,6.0,83,0.00,,---,0.00,VWS V14.01,2013-01-12 17:34:00,
2013-01-12 11:39:00,77.5,71.9,29.95,SE,127,2.0,9.0,83,0.00,,---,0.00,VWS V14.01,2013-01-12 17:39:00,
2013-01-12 11:44:00,77.9,72.3,29.94,SSE,163,2.0,9.0,83,0.00,,---,0.00,VWS V14.01,2013-01-12 17:44:00,
2013-01-12 11:49:00,77.7,71.8,29.94,South,180,2.0,9.0,82,0.00,,---,0.00,VWS V14.01,2013-01-12 17:49:00,
2013-01-12 11:54:00,77.4,72.2,29.94,SSE,159,2.0,9.0,84,0.00,,---,0.00,VWS V14.01,2013-01-12 17:54:00,
2013-01-12 11:59:00,77.2,72.0,29.94,SW,218,2.0,9.0,84,0.00,,---,0.00,VWS V14.01,2013-01-12 17:59:00,
2013-01-12 12:04:00,77.0,71.8,29.94,SSE,167,1.0,9.0,84,0.00,,---,0.00,VWS V14.01,2013-01-12 18:04:00,
2013-01-12 12:09:00,77.1,71.9,29.93,SW,218,3.0,9.0,84,0.00,,---,0.00,VWS V14.01,2013-01-12 18:09:00,
2013-01-12 12:14:00,76.9,71.7,29.93,SE,129,0.0,9.0,84,0.00,,---,0.00,VWS V14.01,2013-01-12 18:14:00,
2013-01-12 12:19:00,76.8,71.6,29.93,SSE,163,0.0,9.0,84,0.00,,---,0.00,VWS V14.01,2013-01-12 18:19:00,
2013-01-12 12:24:00,76.7,71.5,29.93,SE,129,1.0,9.0,84,0.00,,---,0.00,VWS V14.01,2013-01-12 18:24:00,
2013-01-12 12:29:00,76.6,71.4,29.93,WSW,238,2.0,9.0,84,0.00,,---,0.00,VWS V14.01,2013-01-12 18:29:00,
2013-01-12 12:34:00,76.2,71.0,29.93,SSW,198,0.0,1.0,84,0.00,,---,0.00,VWS V14.01,2013-01-12 18:34:00,
2013-01-12 12:39:00,76.2,71.4,29.93,SSE,148,1.0,7.0,85,0.00,,---,0.00,VWS V14.01,2013-01-12 18:39:00,
2013-01-12 12:44:00,76.4,71.6,29.93,SE,145,0.0,7.0,85,0.00,,---,0.00,VWS V14.01,2013-01-12 18:44:00,
2013-01-12 12:49:00,76.5,71.3,29.92,SSE,153,1.0,7.0,84,0.00,,---,0.00,VWS V14.01,2013-01-12 18:49:00,
2013-01-12 12:54:00,76.4,71.2,29.92,ESE,117,3.0,7.0,84,0.00,,---,0.00,VWS V14.01,2013-01-12 18:54:00,
2013-01-12 12:59:00,76.0,70.8,29.92,ESE,112,2.0,7.0,84,0.00,,---,0.00,VWS V14.01,2013-01-12 18:59:00,
2013-01-12 13:04:00,75.9,71.4,29.92,South,181,0.0,2.0,86,0.00,,---,0.00,VWS V14.01,2013-01-12 19:04:00,
2013-01-12 13:09:00,76.0,71.2,29.92,SW,221,1.0,4.0,85,0.00,,---,0.00,VWS V14.01,2013-01-12 19:09:00,
2013-01-12 13:14:00,76.2,71.4,29.93,SW,229,0.0,4.0,85,0.00,,---,0.00,VWS V14.01,2013-01-12 19:14:00,
2013-01-12 13:19:00,76.0,71.2,29.93,SE,145,2.0,4.0,85,0.00,,---,0.00,VWS V14.01,2013-01-12 19:19:00,
2013-01-12 13:24:00,75.6,70.8,29.92,SE,141,0.0,4.0,85,0.00,,---,0.00,VWS V14.01,2013-01-12 19:24:00,
2013-01-12 13:29:00,75.5,71.0,29.92,SSE,148,1.0,4.0,86,0.00,,---,0.00,VWS V14.01,2013-01-12 19:29:00,
2013-01-12 13:34:00,75.8,71.3,29.92,SSE,159,1.0,2.0,86,0.00,,---,0.00,VWS V14.01,2013-01-12 19:34:00,
2013-01-12 13:39:00,76.1,71.3,29.92,SSW,200,1.0,4.0,85,0.00,,---,0.00,VWS V14.01,2013-01-12 19:39:00,
2013-01-12 13:44:00,76.2,71.4,29.91,SSE,167,1.0,7.0,85,0.00,,---,0.00,VWS V14.01,2013-01-12 19:44:00,
2013-01-12 13:49:00,76.3,71.1,29.91,SW,236,1.0,7.0,84,0.00,,---,0.00,VWS V14.01,2013-01-12 19:49:00,
2013-01-12 13:54:00,76.2,71.0,29.91,South,191,0.0,7.0,84,0.00,,---,0.00,VWS V14.01,2013-01-12 19:54:00,
2013-01-12 13:59:00,76.4,71.6,29.91,SSE,156,1.0,7.0,85,0.00,,---,0.00,VWS V14.01,2013-01-12 19:59:00,
2013-01-12 14:04:00,76.6,71.4,29.91,SSW,197,0.0,2.0,84,0.00,,---,0.00,VWS V14.01,2013-01-12 20:04:00,
2013-01-12 14:09:00,76.5,71.3,29.91,SSE,165,1.0,6.0,84,0.00,,---,0.00,VWS V14.01,2013-01-12 20:09:00,
2013-01-12 14:14:00,76.7,71.2,29.91,SE,141,2.0,6.0,83,0.00,,---,0.00,VWS V14.01,2013-01-12 20:14:00,
2013-01-12 14:19:00,76.5,71.0,29.91,SW,217,0.0,6.0,83,0.00,,---,0.00,VWS V14.01,2013-01-12 20:19:00,
2013-01-12 14:24:00,76.1,70.9,29.91,SSW,212,2.0,6.0,84,0.00,,---,0.00,VWS V14.01,2013-01-12 20:24:00,
2013-01-12 14:29:00,75.7,70.5,29.91,SSE,156,0.0,6.0,84,0.00,,---,0.00,VWS V14.01,2013-01-12 20:29:00,
2013-01-12 14:34:00,75.3,70.5,29.91,ESE,113,0.0,1.0,85,0.00,,---,0.00,VWS V14.01,2013-01-12 20:34:00,
2013-01-12 14:39:00,75.1,70.3,29.91,SSE,150,1.0,2.0,85,0.00,,---,0.00,VWS V14.01,2013-01-12 20:39:00,
2013-01-12 14:44:00,74.8,70.3,29.91,SE,141,1.0,2.0,86,0.00,,---,0.00,VWS V14.01,2013-01-12 20:44:00,
2013-01-12 14:49:00,74.7,70.2,29.91,SSE,150,0.0,3.0,86,0.00,,---,0.00,VWS V14.01,2013-01-12 20:49:00,
2013-01-12 14:54:00,74.6,70.1,29.91,SSE,151,0.0,3.0,86,0.00,,---,0.00,VWS V14.01,2013-01-12 20:54:00,
2013-01-12 14:59:00,74.7,70.2,29.91,SE,143,0.0,3.0,86,0.00,,---,0.00,VWS V14.01,2013-01-12 20:59:00,
2013-01-12 15:04:00,74.7,69.9,29.91,SE,146,0.0,0.0,85,0.00,,---,0.00,VWS V14.01,2013-01-12 21:04:00,
2013-01-12 15:09:00,74.6,69.8,29.91,SSE,159,0.0,3.0,85,0.00,,---,0.00,VWS V14.01,2013-01-12 21:09:00,
2013-01-12 15:14:00,74.5,70.0,29.91,SE,134,1.0,3.0,86,0.00,,---,0.00,VWS V14.01,2013-01-12 21:14:00,
2013-01-12 15:19:00,74.4,69.9,29.91,SE,141,0.0,4.0,86,0.00,,---,0.00,VWS V14.01,2013-01-12 21:19:00,
2013-01-12 15:23:00,74.4,69.9,29.91,SW,225,1.0,4.0,86,0.00,,---,0.00,VWS V14.01,2013-01-12 21:23:00,
2013-01-12 15:28:00,74.3,69.8,29.90,SE,136,0.0,4.0,86,0.00,,---,0.00,VWS V14.01,2013-01-12 21:28:00,
2013-01-12 15:33:00,74.2,69.8,29.90,South,187,1.0,4.0,86,0.00,,---,0.00,VWS V14.01,2013-01-12 21:33:00,
2013-01-12 15:38:00,74.1,70.0,29.90,ESE,115,0.0,2.0,87,0.00,,---,0.00,VWS V14.01,2013-01-12 21:38:00,
2013-01-12 15:43:00,73.9,69.8,29.91,SE,128,0.0,2.0,87,0.00,,---,0.00,VWS V14.01,2013-01-12 21:43:00,
2013-01-12 15:48:00,73.7,69.6,29.91,SE,142,0.0,3.0,87,0.00,,---,0.00,VWS V14.01,2013-01-12 21:48:00,
2013-01-12 15:53:00,73.6,69.8,29.91,ESE,115,2.0,3.0,88,0.00,,---,0.00,VWS V14.01,2013-01-12 21:53:00,
2013-01-12 15:58:00,73.5,69.7,29.91,ESE,103,0.0,3.0,88,0.00,,---,0.00,VWS V14.01,2013-01-12 21:58:00,
2013-01-12 16:03:00,73.4,70.0,29.91,ESE,121,0.0,3.0,89,0.00,,---,0.00,VWS V14.01,2013-01-12 22:03:00,
2013-01-12 16:08:00,73.4,70.0,29.91,SE,140,2.0,2.0,89,0.00,,---,0.00,VWS V14.01,2013-01-12 22:08:00,
2013-01-12 16:13:00,73.3,69.9,29.90,SE,129,0.0,4.0,89,0.00,,---,0.00,VWS V14.01,2013-01-12 22:13:00,
2013-01-12 16:18:00,73.2,69.8,29.91,SE,136,0.0,4.0,89,0.00,,---,0.00,VWS V14.01,2013-01-12 22:18:00,
2013-01-12 16:23:00,73.0,69.9,29.90,SSE,160,0.0,4.0,90,0.00,,---,0.00,VWS V14.01,2013-01-12 22:23:00,
2013-01-12 16:28:00,72.7,69.6,29.90,SE,140,0.0,4.0,90,0.00,,---,0.00,VWS V14.01,2013-01-12 22:28:00,
2013-01-12 16:33:00,72.4,69.6,29.90,SE,146,1.0,4.0,91,0.00,,---,0.00,VWS V14.01,2013-01-12 22:33:00,
2013-01-12 16:38:00,72.2,69.4,29.90,East,99,0.0,2.0,91,0.00,,---,0.00,VWS V14.01,2013-01-12 22:38:00,
2013-01-12 16:43:00,71.9,69.1,29.90,SE,131,0.0,4.0,91,0.00,,---,0.00,VWS V14.01,2013-01-12 22:43:00,
2013-01-12 16:48:00,71.7,69.3,29.91,SSE,148,0.0,4.0,92,0.00,,---,0.00,VWS V14.01,2013-01-12 22:48:00,
2013-01-12 16:53:00,71.4,69.0,29.91,SSE,148,0.0,4.0,92,0.00,,---,0.00,VWS V14.01,2013-01-12 22:53:00,
2013-01-12 16:58:00,71.1,69.0,29.90,SE,125,0.0,4.0,93,0.00,,---,0.00,VWS V14.01,2013-01-12 22:58:00,
2013-01-12 17:03:00,70.9,68.8,29.90,SSE,159,0.0,4.0,93,0.00,,---,0.00,VWS V14.01,2013-01-12 23:03:00,
2013-01-12 17:08:00,70.8,69.0,29.90,ESE,122,0.0,2.0,94,0.00,,---,0.00,VWS V14.01,2013-01-12 23:08:00,
2013-01-12 17:13:00,70.7,68.9,29.89,SE,141,0.0,2.0,94,0.00,,---,0.00,VWS V14.01,2013-01-12 23:13:00,
2013-01-12 17:18:00,70.5,68.7,29.89,SE,141,0.0,2.0,94,0.00,,---,0.00,VWS V14.01,2013-01-12 23:18:00,
2013-01-12 17:23:00,70.4,68.9,29.89,SSE,158,0.0,3.0,95,0.00,,---,0.00,VWS V14.01,2013-01-12 23:23:00,
2013-01-12 17:28:00,70.3,68.8,29.89,SE,145,1.0,3.0,95,0.00,,---,0.00,VWS V14.01,2013-01-12 23:28:00,
2013-01-12 17:33:00,70.2,68.7,29.89,SE,130,0.0,3.0,95,0.00,,---,0.00,VWS V14.01,2013-01-12 23:33:00,
2013-01-12 17:38:00,70.1,68.6,29.89,South,180,0.0,2.0,95,0.00,,---,0.00,VWS V14.01,2013-01-12 23:38:00,
2013-01-12 17:43:00,70.0,68.5,29.89,SSE,158,0.0,2.0,95,0.00,,---,0.00,VWS V14.01,2013-01-12 23:43:00,
2013-01-12 17:48:00,69.9,68.4,29.89,SE,128,0.0,2.0,95,0.00,,---,0.00,VWS V14.01,2013-01-12 23:48:00,
2013-01-12 17:53:00,69.7,68.2,29.89,SE,145,1.0,2.0,95,0.00,,---,0.00,VWS V14.01,2013-01-12 23:53:00,
2013-01-12 17:58:00,69.7,68.5,29.89,SE,145,0.0,2.0,96,0.00,,---,0.00,VWS V14.01,2013-01-12 23:58:00,
2013-01-12 18:03:00,69.6,68.4,29.90,SE,134,0.0,2.0,96,0.00,,---,0.00,VWS V14.01,2013-01-13 00:03:00,
2013-01-12 18:08:00,69.5,68.3,29.90,SW,222,0.0,1.0,96,0.00,,---,0.00,VWS V14.01,2013-01-13 00:08:00,
2013-01-12 18:13:00,69.5,68.3,29.91,SE,131,0.0,1.0,96,0.00,,---,0.00,VWS V14.01,2013-01-13 00:13:00,
2013-01-12 18:18:00,69.5,68.3,29.91,SE,128,0.0,1.0,96,0.00,,---,0.00,VWS V14.01,2013-01-13 00:18:00,
2013-01-12 18:23:00,69.5,68.3,29.90,SSE,150,0.0,1.0,96,0.00,,---,0.00,VWS V14.01,2013-01-13 00:23:00,
2013-01-12 18:28:00,69.5,68.3,29.90,SSW,210,0.0,2.0,96,0.00,,---,0.00,VWS V14.01,2013-01-13 00:28:00,
2013-01-12 18:33:00,69.4,68.2,29.90,SSE,150,0.0,2.0,96,0.00,,---,0.00,VWS V14.01,2013-01-13 00:33:00,
2013-01-12 18:38:00,69.4,68.2,29.90,SE,145,0.0,1.0,96,0.00,,---,0.00,VWS V14.01,2013-01-13 00:38:00,
2013-01-12 18:43:00,69.3,68.1,29.90,SE,142,0.0,1.0,96,0.00,,---,0.00,VWS V14.01,2013-01-13 00:43:00,
2013-01-12 18:48:00,69.3,68.1,29.90,SSW,195,4.0,6.0,96,0.00,,---,0.00,VWS V14.01,2013-01-13 00:48:00,
2013-01-12 18:53:00,69.3,68.1,29.90,SSW,212,0.0,6.0,96,0.00,,---,0.00,VWS V14.01,2013-01-13 00:53:00,
2013-01-12 18:58:00,69.3,68.1,29.90,SE,145,0.0,6.0,96,0.00,,---,0.00,VWS V14.01,2013-01-13 00:58:00,
2013-01-12 19:03:00,69.3,68.4,29.89,SSE,150,0.0,6.0,97,0.00,,---,0.00,VWS V14.01,2013-01-13 01:03:00,
2013-01-12 19:08:00,69.2,68.0,29.89,SE,145,0.0,1.0,96,0.00,,---,0.00,VWS V14.01,2013-01-13 01:08:00,
2013-01-12 19:13:00,69.1,67.9,29.90,SSE,156,0.0,1.0,96,0.00,,---,0.00,VWS V14.01,2013-01-13 01:13:00,
2013-01-12 19:18:00,69.1,68.2,29.89,SE,136,0.0,2.0,97,0.00,,---,0.00,VWS V14.01,2013-01-13 01:18:00,
2013-01-12 19:23:00,69.0,68.1,29.89,SE,145,0.0,2.0,97,0.00,,---,0.00,VWS V14.01,2013-01-13 01:23:00,
2013-01-12 19:28:00,68.9,68.0,29.88,SE,142,0.0,2.0,97,0.00,,---,0.00,VWS V14.01,2013-01-13 01:28:00,
2013-01-12 19:33:00,68.8,67.9,29.88,SE,143,0.0,2.0,97,0.00,,---,0.00,VWS V14.01,2013-01-13 01:33:00,
2013-01-12 19:38:00,68.8,67.9,29.89,SE,130,1.0,1.0,97,0.00,,---,0.00,VWS V14.01,2013-01-13 01:38:00,
2013-01-12 19:43:00,68.7,67.8,29.89,SE,139,0.0,1.0,97,0.00,,---,0.00,VWS V14.01,2013-01-13 01:43:00,
2013-01-12 19:48:00,68.7,67.8,29.89,SE,141,0.0,1.0,97,0.00,,---,0.00,VWS V14.01,2013-01-13 01:48:00,
2013-01-12 19:53:00,68.6,67.7,29.88,WSW,240,0.0,1.0,97,0.00,,---,0.00,VWS V14.01,2013-01-13 01:53:00,
2013-01-12 19:58:00,68.6,67.7,29.88,SE,136,0.0,1.0,97,0.00,,---,0.00,VWS V14.01,2013-01-13 01:58:00,
2013-01-12 20:03:00,68.6,67.7,29.88,SE,138,1.0,1.0,97,0.00,,---,0.00,VWS V14.01,2013-01-13 02:03:00,
2013-01-12 20:08:00,68.6,67.7,29.87,SE,141,1.0,1.0,97,0.00,,---,0.00,VWS V14.01,2013-01-13 02:08:00,
2013-01-12 20:13:00,68.6,68.0,29.87,South,183,0.0,2.0,98,0.00,,---,0.00,VWS V14.01,2013-01-13 02:13:00,
2013-01-12 20:18:00,68.8,68.2,29.87,SE,128,0.0,2.0,98,0.00,,---,0.00,VWS V14.01,2013-01-13 02:18:00,
2013-01-12 20:23:00,68.8,68.2,29.87,SSE,156,0.0,2.0,98,0.00,,---,0.00,VWS V14.01,2013-01-13 02:23:00,
2013-01-12 20:28:00,68.9,68.3,29.87,ESE,103,0.0,2.0,98,0.00,,---,0.00,VWS V14.01,2013-01-13 02:28:00,
2013-01-12 20:33:00,69.0,68.4,29.87,SSE,154,0.0,3.0,98,0.00,,---,0.00,VWS V14.01,2013-01-13 02:33:00,
2013-01-12 20:38:00,69.2,68.6,29.87,SE,138,1.0,2.0,98,0.00,,---,0.00,VWS V14.01,2013-01-13 02:38:00,
2013-01-12 20:43:00,69.2,68.6,29.87,SE,141,0.0,2.0,98,0.00,,---,0.00,VWS V14.01,2013-01-13 02:43:00,
2013-01-12 20:48:00,69.3,68.7,29.87,WSW,254,1.0,2.0,98,0.00,,---,0.00,VWS V14.01,2013-01-13 02:48:00,
2013-01-12 20:53:00,69.4,68.8,29.88,SE,129,0.0,2.0,98,0.00,,---,0.00,VWS V14.01,2013-01-13 02:53:00,
2013-01-12 20:58:00,69.6,69.0,29.88,SE,136,0.0,10.0,98,0.00,,---,0.00,VWS V14.01,2013-01-13 02:58:00,
2013-01-12 21:03:00,69.6,69.0,29.88,SSE,159,2.0,10.0,98,0.00,,---,0.00,VWS V14.01,2013-01-13 03:03:00,
2013-01-12 21:08:00,69.7,69.1,29.87,SSE,159,0.0,2.0,98,0.00,,---,0.00,VWS V14.01,2013-01-13 03:08:00,
2013-01-12 21:13:00,69.7,69.1,29.88,SE,142,0.0,2.0,98,0.00,,---,0.00,VWS V14.01,2013-01-13 03:13:00,
2013-01-12 21:18:00,69.8,69.2,29.88,SSW,207,1.0,3.0,98,0.00,,---,0.00,VWS V14.01,2013-01-13 03:18:00,
2013-01-12 21:23:00,69.9,69.3,29.88,SSE,150,0.0,3.0,98,0.00,,---,0.00,VWS V14.01,2013-01-13 03:23:00,
2013-01-12 21:28:00,69.9,69.3,29.88,SE,141,0.0,3.0,98,0.00,,---,0.00,VWS V14.01,2013-01-13 03:28:00,
2013-01-12 21:33:00,70.0,69.4,29.88,SSE,160,0.0,3.0,98,0.00,,---,0.00,VWS V14.01,2013-01-13 03:33:00,
2013-01-12 21:38:00,70.1,69.5,29.88,SE,134,1.0,6.0,98,0.00,,---,0.00,VWS V14.01,2013-01-13 03:38:00,
2013-01-12 21:43:00,70.2,69.6,29.88,South,179,0.0,6.0,98,0.00,,---,0.00,VWS V14.01,2013-01-13 03:43:00,
2013-01-12 21:48:00,70.2,69.6,29.88,SE,130,0.0,6.0,98,0.00,,---,0.00,VWS V14.01,2013-01-13 03:48:00,
2013-01-12 21:53:00,70.3,69.7,29.88,South,186,0.0,6.0,98,0.00,,---,0.00,VWS V14.01,2013-01-13 03:53:00,
2013-01-12 21:58:00,70.3,69.4,29.88,South,172,1.0,6.0,97,0.00,,---,0.00,VWS V14.01,2013-01-13 03:58:00,
2013-01-12 22:03:00,70.4,69.5,29.88,SE,132,0.0,6.0,97,0.00,,---,0.00,VWS V14.01,2013-01-13 04:03:00,
2013-01-12 22:08:00,70.4,69.5,29.88,South,184,0.0,2.0,97,0.00,,---,0.00,VWS V14.01,2013-01-13 04:08:00,
2013-01-12 22:13:00,70.4,69.5,29.88,SE,129,0.0,3.0,97,0.00,,---,0.00,VWS V14.01,2013-01-13 04:13:00,
2013-01-12 22:18:00,70.5,69.6,29.88,SE,141,1.0,3.0,97,0.00,,---,0.00,VWS V14.01,2013-01-13 04:18:00,
2013-01-12 22:23:00,70.5,69.6,29.88,West,281,3.0,4.0,97,0.00,,---,0.00,VWS V14.01,2013-01-13 04:23:00,
2013-01-12 22:28:00,70.5,69.6,29.88,SE,134,2.0,4.0,97,0.00,,---,0.00,VWS V14.01,2013-01-13 04:28:00,
2013-01-12 22:33:00,70.6,69.7,29.89,SW,214,0.0,4.0,97,0.00,,---,0.00,VWS V14.01,2013-01-13 04:33:00,
2013-01-12 22:38:00,70.7,69.8,29.89,SE,127,0.0,4.0,97,0.00,,---,0.00,VWS V14.01,2013-01-13 04:38:00,
2013-01-12 22:43:00,70.7,69.8,29.89,South,188,1.0,4.0,97,0.00,,---,0.00,VWS V14.01,2013-01-13 04:43:00,
2013-01-12 22:48:00,70.7,69.8,29.89,West,262,0.0,4.0,97,0.00,,---,0.00,VWS V14.01,2013-01-13 04:48:00,
2013-01-12 22:53:00,70.7,69.8,29.88,SW,236,0.0,4.0,97,0.00,,---,0.00,VWS V14.01,2013-01-13 04:53:00,
2013-01-12 22:58:00,70.7,69.8,29.88,SE,141,0.0,4.0,97,0.00,,---,0.00,VWS V14.01,2013-01-13 04:58:00,
2013-01-12 23:00:00,70.7,69.8,29.88,SW,233,0.0,4.0,97,0.00,,---,0.00,VWS V14.01,2013-01-13 05:00:00,
2013-01-12 23:02:00,70.7,69.8,29.88,South,176,0.0,4.0,97,0.00,,---,0.00,VWS V14.01,2013-01-13 05:02:00,
2013-01-12 23:03:00,70.7,69.8,29.88,ESE,113,2.0,4.0,97,0.00,,---,0.00,VWS V14.01,2013-01-13 05:03:00,
2013-01-12 23:08:00,70.7,69.8,29.88,SSE,163,1.0,3.0,97,0.00,,---,0.00,VWS V14.01,2013-01-13 05:08:00,
2013-01-12 23:13:00,70.7,69.8,29.88,SSE,155,1.0,6.0,97,0.00,,---,0.00,VWS V14.01,2013-01-13 05:13:00,
2013-01-12 23:18:00,70.6,69.7,29.87,SW,217,0.0,6.0,97,0.00,,---,0.00,VWS V14.01,2013-01-13 05:18:00,
2013-01-12 23:23:00,70.5,69.6,29.87,SSE,158,0.0,6.0,97,0.00,,---,0.00,VWS V14.01,2013-01-13 05:23:00,
2013-01-12 23:28:00,70.4,69.5,29.87,SSE,158,2.0,6.0,97,0.00,,---,0.00,VWS V14.01,2013-01-13 05:28:00,
2013-01-12 23:33:00,70.4,69.5,29.87,South,180,0.0,6.0,97,0.00,,---,0.00,VWS V14.01,2013-01-13 05:33:00,
2013-01-12 23:38:00,70.4,69.5,29.88,SW,228,2.0,4.0,97,0.00,,---,0.00,VWS V14.01,2013-01-13 05:38:00,
2013-01-12 23:43:00,70.4,69.5,29.88,SE,136,1.0,4.0,97,0.00,,---,0.00,VWS V14.01,2013-01-13 05:43:00,
2013-01-12 23:48:00,70.4,69.5,29.87,SE,139,1.0,4.0,97,0.00,,---,0.00,VWS V14.01,2013-01-13 05:48:00,
2013-01-12 23:53:00,70.4,69.5,29.87,SSE,148,0.0,5.0,97,0.00,,---,0.00,VWS V14.01,2013-01-13 05:53:00,
2013-01-12 23:58:00,70.5,69.6,29.88,SSW,198,2.0,5.0,97,0.00,,---,0.00,VWS V14.01,2013-01-13 05:58:00,